| time (UTC) | temp C | wind direction | speed KPH | gust KPH | rain 1hr cm | rain 24hr cm | rain mn cm | humidity % | barometer mb |
| 20260507084704 | 13 | 144 | 0.0 | 0.0 | 0.00 | 0.00 | 0.00 | 49 | 1016.6 |
| 20260507084204 | 13 | 144 | 0.0 | 0.0 | 0.00 | 0.00 | 0.00 | 49 | 1016.7 |
| 20260507083704 | 13 | 144 | 0.0 | 0.0 | 0.00 | 0.00 | 0.00 | 49 | 1016.7 |
| 20260507083205 | 13 | 144 | 0.0 | 0.0 | 0.00 | 0.00 | 0.00 | 49 | 1016.8 |
| 20260507082704 | 13 | 144 | 0.0 | 0.0 | 0.00 | 0.00 | 0.00 | 49 | 1016.7 |
| 20260507082205 | 13 | 145 | 0.0 | 0.0 | 0.00 | 0.00 | 0.00 | 50 | 1016.8 |
| 20260507081704 | 13 | 173 | 0.0 | 0.0 | 0.00 | 0.00 | 0.00 | 50 | 1016.8 |
| 20260507081204 | 13 | 173 | 0.0 | 0.0 | 0.00 | 0.00 | 0.00 | 51 | 1016.9 |
| 20260507080704 | 14 | 173 | 0.0 | 0.0 | 0.00 | 0.00 | 0.00 | 51 | 1016.9 |
| 20260507080205 | 14 | 173 | 0.0 | 0.0 | 0.00 | 0.00 | 0.00 | 51 | 1016.8 |
| 20260507075705 | 14 | 173 | 0.0 | 0.0 | 0.00 | 0.00 | 0.00 | 51 | 1016.8 |
| 20260507075204 | 14 | 173 | 0.0 | 0.0 | 0.00 | 0.00 | 0.00 | 51 | 1016.8 |
| 20260507074205 | 14 | 173 | 0.0 | 0.0 | 0.00 | 0.00 | 0.00 | 52 | 1016.9 |
| 20260507073704 | 14 | 173 | 0.0 | 0.0 | 0.00 | 0.00 | 0.00 | 52 | 1016.8 |
| 20260507073204 | 14 | 173 | 0.0 | 0.0 | 0.00 | 0.00 | 0.00 | 52 | 1016.9 |
| 20260507072705 | 14 | 86 | 0.0 | 0.0 | 0.00 | 0.00 | 0.00 | 52 | 1016.8 |
| 20260507072204 | 14 | 86 | 0.0 | 0.0 | 0.00 | 0.00 | 0.00 | 52 | 1016.9 |
| 20260507071704 | 14 | 86 | 0.0 | 0.0 | 0.00 | 0.00 | 0.00 | 52 | 1016.9 |
| 20260507070704 | 15 | 86 | 0.0 | 0.0 | 0.00 | 0.00 | 0.00 | 52 | 1016.9 |
| 20260507070204 | 15 | 86 | 0.0 | 0.0 | 0.00 | 0.00 | 0.00 | 52 | 1017.0 |
| 20260507065705 | 15 | 89 | 0.0 | 0.0 | 0.00 | 0.00 | 0.00 | 52 | 1017.1 |
| 20260507064704 | 15 | 89 | 0.0 | 0.0 | 0.00 | 0.00 | 0.00 | 52 | 1017.2 |
| 20260507063704 | 15 | 89 | 0.0 | 0.0 | 0.00 | 0.00 | 0.00 | 52 | 1017.2 |
| 20260507063204 | 15 | 89 | 0.0 | 0.0 | 0.00 | 0.00 | 0.00 | 52 | 1017.3 |
| 20260507062704 | 15 | 89 | 0.0 | 0.0 | 0.00 | 0.00 | 0.00 | 52 | 1017.2 |
| 20260507062204 | 15 | 89 | 0.0 | 0.0 | 0.00 | 0.00 | 0.00 | 52 | 1017.3 |
| 20260507061705 | 15 | 89 | 0.0 | 1.6 | 0.00 | 0.00 | 0.00 | 52 | 1017.3 |
| 20260507055704 | 15 | 88 | 0.0 | 3.2 | 0.00 | 0.00 | 0.00 | 52 | 1017.4 |
| 20260507055204 | 15 | 89 | 0.0 | 3.2 | 0.00 | 0.00 | 0.00 | 52 | 1017.4 |
| 20260507054704 | 15 | 92 | 0.0 | 1.6 | 0.00 | 0.00 | 0.00 | 52 | 1017.3 |
| 20260507054204 | 15 | 94 | 1.6 | 4.8 | 0.00 | 0.00 | 0.00 | 52 | 1017.3 |
| 20260507053704 | 15 | 99 | 1.6 | 4.8 | 0.00 | 0.00 | 0.00 | 52 | 1017.3 |
| 20260507053205 | 15 | 82 | 1.6 | 3.2 | 0.00 | 0.00 | 0.00 | 52 | 1017.3 |
| 20260507052704 | 15 | 89 | 0.0 | 1.6 | 0.00 | 0.00 | 0.00 | 52 | 1017.3 |
| 20260507051704 | 15 | 94 | 0.0 | 0.0 | 0.00 | 0.00 | 0.00 | 52 | 1017.2 |
| 20260507050704 | 16 | 88 | 0.0 | 1.6 | 0.00 | 0.00 | 0.00 | 52 | 1017.2 |
| 20260507050204 | 16 | 88 | 0.0 | 0.0 | 0.00 | 0.00 | 0.00 | 52 | 1017.2 |
| 20260507044204 | 16 | 81 | 1.6 | 4.8 | 0.00 | 0.00 | 0.00 | 52 | 1017.2 |
| 20260507043705 | 16 | 93 | 1.6 | 4.8 | 0.00 | 0.00 | 0.00 | 52 | 1017.3 |
| 20260507043205 | 16 | 97 | 3.2 | 4.8 | 0.00 | 0.00 | 0.00 | 52 | 1017.2 |
| 20260507042704 | 16 | 95 | 3.2 | 9.7 | 0.00 | 0.00 | 0.00 | 52 | 1017.3 |
| 20260507042204 | 16 | 81 | 4.8 | 12.9 | 0.00 | 0.00 | 0.00 | 52 | 1017.2 |
| 20260507041704 | 16 | 85 | 3.2 | 9.7 | 0.00 | 0.00 | 0.00 | 52 | 1017.2 |
| 20260507041204 | 16 | 103 | 6.4 | 9.7 | 0.00 | 0.00 | 0.00 | 52 | 1017.2 |
| 20260507040704 | 16 | 95 | 3.2 | 9.7 | 0.00 | 0.00 | 0.00 | 52 | 1017.1 |
| 20260507040204 | 16 | 96 | 3.2 | 9.7 | 0.00 | 0.00 | 0.00 | 51 | 1017.1 |
| 20260507035704 | 16 | 97 | 3.2 | 8.0 | 0.00 | 0.00 | 0.00 | 51 | 1017.1 |
| 20260507035205 | 16 | 95 | 4.8 | 4.8 | 0.00 | 0.00 | 0.00 | 51 | 1017.0 |
| 20260507034704 | 16 | 99 | 1.6 | 4.8 | 0.00 | 0.00 | 0.00 | 51 | 1016.9 |
| 20260507034204 | 16 | 99 | 4.8 | 9.7 | 0.00 | 0.00 | 0.00 | 50 | 1016.9 |
| 20260507033705 | 17 | 90 | 1.6 | 4.8 | 0.00 | 0.00 | 0.00 | 50 | 1016.9 |
| 20260507033204 | 17 | 86 | 4.8 | 9.7 | 0.00 | 0.00 | 0.00 | 50 | 1016.8 |
| 20260507032704 | 17 | 86 | 4.8 | 9.7 | 0.00 | 0.00 | 0.00 | 50 | 1016.7 |
| 20260507032204 | 17 | 90 | 3.2 | 9.7 | 0.00 | 0.00 | 0.00 | 50 | 1016.6 |
| 20260507031204 | 17 | 95 | 4.8 | 11.3 | 0.00 | 0.00 | 0.00 | 49 | 1016.5 |
| 20260507030704 | 17 | 88 | 4.8 | 12.9 | 0.00 | 0.00 | 0.00 | 49 | 1016.5 |
| 20260507030204 | 17 | 103 | 4.8 | 11.3 | 0.00 | 0.00 | 0.00 | 48 | 1016.4 |
| 20260507025704 | 17 | 92 | 8.0 | 11.3 | 0.00 | 0.00 | 0.00 | 48 | 1016.4 |
| 20260507025204 | 17 | 86 | 6.4 | 9.7 | 0.00 | 0.00 | 0.00 | 48 | 1016.3 |
| 20260507024204 | 18 | 100 | 8.0 | 11.3 | 0.00 | 0.00 | 0.00 | 47 | 1016.2 |
| 20260507023705 | 18 | 108 | 8.0 | 12.9 | 0.00 | 0.00 | 0.00 | 46 | 1016.1 |
| 20260507023204 | 18 | 106 | 4.8 | 14.5 | 0.00 | 0.00 | 0.00 | 46 | 1016.2 |
| 20260507022704 | 18 | 109 | 6.4 | 12.9 | 0.00 | 0.00 | 0.00 | 46 | 1016.1 |
| 20260507022204 | 18 | 102 | 6.4 | 11.3 | 0.00 | 0.00 | 0.00 | 45 | 1016.1 |
| 20260507021703 | 18 | 116 | 8.0 | 14.5 | 0.00 | 0.00 | 0.00 | 45 | 1016.1 |
| 20260507021204 | 18 | 107 | 4.8 | 12.9 | 0.00 | 0.00 | 0.00 | 45 | 1016.0 |
| 20260507020704 | 19 | 128 | 8.0 | 14.5 | 0.00 | 0.00 | 0.00 | 45 | 1016.0 |
| 20260507020204 | 19 | 123 | 8.0 | 16.1 | 0.00 | 0.00 | 0.00 | 45 | 1015.8 |
| 20260507015704 | 19 | 110 | 4.8 | 19.3 | 0.00 | 0.00 | 0.00 | 44 | 1015.9 |
| 20260507015204 | 20 | 124 | 6.4 | 19.3 | 0.00 | 0.00 | 0.00 | 44 | 1015.8 |
| 20260507014705 | 20 | 99 | 9.7 | 16.1 | 0.00 | 0.00 | 0.00 | 43 | 1015.8 |
| 20260507014204 | 20 | 140 | 8.0 | 14.5 | 0.00 | 0.00 | 0.00 | 43 | 1015.8 |
| 20260507013705 | 20 | 133 | 9.7 | 16.1 | 0.00 | 0.00 | 0.00 | 43 | 1015.7 |
| 20260507012704 | 20 | 146 | 4.8 | 12.9 | 0.00 | 0.00 | 0.00 | 43 | 1015.7 |
| 20260507012204 | 20 | 143 | 6.4 | 12.9 | 0.00 | 0.00 | 0.00 | 42 | 1015.6 |
| 20260507011705 | 20 | 142 | 8.0 | 19.3 | 0.00 | 0.00 | 0.00 | 42 | 1015.6 |
| 20260507011204 | 20 | 108 | 8.0 | 19.3 | 0.00 | 0.00 | 0.00 | 41 | 1015.6 |
| 20260507010704 | 20 | 109 | 8.0 | 16.1 | 0.00 | 0.00 | 0.00 | 41 | 1015.5 |
| 20260507010204 | 21 | 101 | 8.0 | 14.5 | 0.00 | 0.00 | 0.00 | 40 | 1015.6 |
| 20260507005704 | 21 | 147 | 6.4 | 19.3 | 0.00 | 0.00 | 0.00 | 41 | 1015.5 |
| 20260507005204 | 21 | 125 | 4.8 | 12.9 | 0.00 | 0.00 | 0.00 | 40 | 1015.5 |
| 20260507004704 | 21 | 141 | 9.7 | 16.1 | 0.00 | 0.00 | 0.00 | 40 | 1015.6 |
| 20260507004204 | 21 | 123 | 9.7 | 14.5 | 0.00 | 0.00 | 0.00 | 40 | 1015.5 |
| 20260507003704 | 21 | 137 | 6.4 | 19.3 | 0.00 | 0.00 | 0.00 | 40 | 1015.6 |
| 20260507003204 | 21 | 130 | 8.0 | 16.1 | 0.00 | 0.00 | 0.00 | 40 | 1015.5 |
| 20260507002705 | 21 | 125 | 9.7 | 19.3 | 0.00 | 0.00 | 0.00 | 39 | 1015.5 |
| 20260507002204 | 21 | 189 | 4.8 | 14.5 | 0.00 | 0.00 | 0.00 | 39 | 1015.4 |
| 20260507001704 | 21 | 129 | 4.8 | 19.3 | 0.00 | 0.00 | 0.00 | 39 | 1015.4 |
| 20260507001203 | 21 | 145 | 8.0 | 19.3 | 0.00 | 0.00 | 0.00 | 39 | 1015.5 |
| 20260507000205 | 21 | 111 | 11.3 | 16.1 | 0.00 | 0.00 | 0.00 | 37 | 1015.4 |
| 20260506235704 | 21 | 156 | 8.0 | 16.1 | 0.00 | 0.00 | 0.00 | 37 | 1015.4 |
| 20260506235204 | 21 | 122 | 9.7 | 19.3 | 0.00 | 0.00 | 0.00 | 36 | 1015.4 |
| 20260506234704 | 21 | 136 | 8.0 | 19.3 | 0.00 | 0.00 | 0.00 | 37 | 1015.4 |
| 20260506233704 | 21 | 148 | 9.7 | 19.3 | 0.00 | 0.00 | 0.00 | 36 | 1015.4 |
| 20260506233204 | 21 | 154 | 6.4 | 16.1 | 0.00 | 0.00 | 0.00 | 36 | 1015.4 |
| 20260506232704 | 22 | 141 | 8.0 | 19.3 | 0.00 | 0.00 | 0.00 | 35 | 1015.5 |
| 20260506232204 | 22 | 119 | 11.3 | 19.3 | 0.00 | 0.00 | 0.00 | 35 | 1015.5 |
| 20260506231704 | 22 | 138 | 11.3 | 20.9 | 0.00 | 0.00 | 0.00 | 34 | 1015.5 |
| 20260506230704 | 22 | 125 | 9.7 | 19.3 | 0.00 | 0.00 | 0.00 | 34 | 1015.4 |
| 20260506230204 | 22 | 146 | 9.7 | 16.1 | 0.00 | 0.00 | 0.00 | 33 | 1015.6 |
| 20260506225704 | 22 | 149 | 6.4 | 19.3 | 0.00 | 0.00 | 0.00 | 34 | 1015.5 |
| 20260506224704 | 22 | 194 | 4.8 | 20.9 | 0.00 | 0.00 | 0.00 | 35 | 1015.7 |
| 20260506224205 | 22 | 108 | 9.7 | 24.1 | 0.00 | 0.00 | 0.00 | 35 | 1015.8 |
| 20260506223705 | 22 | 110 | 9.7 | 19.3 | 0.00 | 0.00 | 0.00 | 35 | 1015.9 |
| 20260506223204 | 22 | 133 | 9.7 | 19.3 | 0.00 | 0.00 | 0.00 | 35 | 1015.9 |
| 20260506222705 | 22 | 120 | 8.0 | 19.3 | 0.00 | 0.00 | 0.00 | 36 | 1015.9 |
| 20260506221705 | 22 | 112 | 6.4 | 22.5 | 0.00 | 0.00 | 0.00 | 35 | 1016.1 |
| 20260506221204 | 22 | 129 | 4.8 | 14.5 | 0.00 | 0.00 | 0.00 | 35 | 1016.2 |
| 20260506220704 | 22 | 142 | 12.9 | 20.9 | 0.00 | 0.00 | 0.00 | 35 | 1016.2 |
| 20260506220205 | 22 | 143 | 4.8 | 16.1 | 0.00 | 0.00 | 0.00 | 35 | 1016.2 |
| 20260506215704 | 22 | 157 | 4.8 | 14.5 | 0.00 | 0.00 | 0.00 | 36 | 1016.2 |
| 20260506215204 | 22 | 118 | 9.7 | 16.1 | 0.00 | 0.00 | 0.00 | 36 | 1016.3 |
| 20260506214704 | 22 | 131 | 8.0 | 12.9 | 0.00 | 0.00 | 0.00 | 37 | 1016.3 |
| 20260506214204 | 22 | 173 | 8.0 | 16.1 | 0.00 | 0.00 | 0.00 | 37 | 1016.4 |
| 20260506213705 | 21 | 117 | 11.3 | 19.3 | 0.00 | 0.00 | 0.00 | 38 | 1016.4 |
| 20260506213204 | 22 | 132 | 11.3 | 24.1 | 0.00 | 0.00 | 0.00 | 37 | 1016.5 |
| 20260506212704 | 22 | 152 | 6.4 | 19.3 | 0.00 | 0.00 | 0.00 | 38 | 1016.4 |
| 20260506212204 | 22 | 106 | 6.4 | 19.3 | 0.00 | 0.00 | 0.00 | 38 | 1016.5 |
| 20260506211704 | 21 | 110 | 8.0 | 19.3 | 0.00 | 0.00 | 0.00 | 38 | 1016.7 |
| 20260506211204 | 21 | 135 | 8.0 | 16.1 | 0.00 | 0.00 | 0.00 | 38 | 1016.7 |
| 20260506210704 | 21 | 148 | 4.8 | 16.1 | 0.00 | 0.00 | 0.00 | 39 | 1016.7 |
| 20260506210204 | 21 | 111 | 9.7 | 19.3 | 0.00 | 0.00 | 0.00 | 39 | 1016.7 |
| 20260506205704 | 21 | 118 | 16.1 | 25.7 | 0.00 | 0.00 | 0.00 | 39 | 1016.6 |
| 20260506205206 | 21 | 131 | 8.0 | 19.3 | 0.00 | 0.00 | 0.00 | 39 | 1016.7 |
| 20260506204205 | 22 | 120 | 9.7 | 19.3 | 0.00 | 0.00 | 0.00 | 37 | 1016.7 |
| 20260506203704 | 22 | 116 | 8.0 | 16.1 | 0.00 | 0.00 | 0.00 | 36 | 1016.6 |
| 20260506203204 | 22 | 153 | 4.8 | 14.5 | 0.00 | 0.00 | 0.00 | 36 | 1016.6 |
| 20260506202704 | 22 | 152 | 6.4 | 12.9 | 0.00 | 0.00 | 0.00 | 36 | 1016.8 |
| 20260506201704 | 22 | 201 | 4.8 | 12.9 | 0.00 | 0.00 | 0.00 | 36 | 1016.9 |
| 20260506201204 | 22 | 211 | 6.4 | 12.9 | 0.00 | 0.00 | 0.00 | 35 | 1017.0 |
| 20260506200204 | 22 | 121 | 3.2 | 14.5 | 0.00 | 0.00 | 0.00 | 35 | 1017.1 |
| 20260506195704 | 21 | 160 | 8.0 | 14.5 | 0.00 | 0.00 | 0.00 | 35 | 1017.2 |
| 20260506195205 | 21 | 209 | 4.8 | 9.7 | 0.00 | 0.00 | 0.00 | 34 | 1017.3 |
| 20260506194704 | 21 | 97 | 0.0 | 9.7 | 0.00 | 0.00 | 0.00 | 35 | 1017.3 |
| 20260506194205 | 21 | 213 | 8.0 | 14.5 | 0.00 | 0.00 | 0.00 | 34 | 1017.3 |
| 20260506193704 | 21 | 171 | 4.8 | 11.3 | 0.00 | 0.00 | 0.00 | 36 | 1017.3 |
| 20260506193204 | 21 | 205 | 4.8 | 8.0 | 0.00 | 0.00 | 0.00 | 36 | 1017.4 |
| 20260506192204 | 21 | 124 | 3.2 | 12.9 | 0.00 | 0.00 | 0.00 | 35 | 1017.4 |
| 20260506191704 | 21 | 193 | 3.2 | 12.9 | 0.00 | 0.00 | 0.00 | 36 | 1017.5 |
| 20260506191205 | 21 | 203 | 4.8 | 12.9 | 0.00 | 0.00 | 0.00 | 36 | 1017.6 |
| 20260506190704 | 21 | 276 | 4.8 | 12.9 | 0.00 | 0.00 | 0.00 | 35 | 1017.7 |
| 20260506190204 | 21 | 151 | 1.6 | 9.7 | 0.00 | 0.00 | 0.00 | 36 | 1017.7 |
| 20260506185204 | 20 | 171 | 3.2 | 12.9 | 0.00 | 0.00 | 0.00 | 38 | 1017.8 |
| 20260506184704 | 20 | 165 | 6.4 | 14.5 | 0.00 | 0.00 | 0.00 | 38 | 1017.9 |
| 20260506183704 | 20 | 140 | 6.4 | 16.1 | 0.00 | 0.00 | 0.00 | 37 | 1018.2 |
| 20260506183204 | 20 | 194 | 4.8 | 11.3 | 0.00 | 0.00 | 0.00 | 37 | 1018.2 |
| 20260506182704 | 20 | 187 | 6.4 | 14.5 | 0.00 | 0.00 | 0.00 | 37 | 1018.2 |
| 20260506182204 | 20 | 82 | 6.4 | 14.5 | 0.00 | 0.00 | 0.00 | 37 | 1018.2 |
| 20260506181705 | 19 | 269 | 1.6 | 9.7 | 0.00 | 0.00 | 0.00 | 39 | 1018.1 |
| 20260506181204 | 19 | 110 | 3.2 | 11.3 | 0.00 | 0.00 | 0.00 | 38 | 1018.2 |
| 20260506180704 | 19 | 187 | 4.8 | 12.9 | 0.00 | 0.00 | 0.00 | 38 | 1018.1 |
| 20260506180204 | 19 | 156 | 3.2 | 14.5 | 0.00 | 0.00 | 0.00 | 39 | 1018.1 |
| 20260506175204 | 19 | 112 | 4.8 | 9.7 | 0.00 | 0.00 | 0.00 | 38 | 1018.2 |
| 20260506174705 | 19 | 161 | 3.2 | 11.3 | 0.00 | 0.00 | 0.00 | 39 | 1018.1 |
| 20260506174204 | 19 | 214 | 3.2 | 9.7 | 0.00 | 0.00 | 0.00 | 39 | 1018.1 |
| 20260506173204 | 18 | 180 | 4.8 | 11.3 | 0.00 | 0.00 | 0.00 | 40 | 1018.1 |
| 20260506172704 | 18 | 273 | 3.2 | 4.8 | 0.00 | 0.00 | 0.00 | 39 | 1018.1 |
| 20260506172204 | 18 | 169 | 4.8 | 11.3 | 0.00 | 0.00 | 0.00 | 40 | 1018.1 |
| 20260506171204 | 17 | 176 | 3.2 | 9.7 | 0.00 | 0.00 | 0.00 | 42 | 1018.2 |
| 20260506170704 | 17 | 147 | 4.8 | 11.3 | 0.00 | 0.00 | 0.00 | 42 | 1018.2 |
| 20260506170204 | 17 | 109 | 8.0 | 14.5 | 0.00 | 0.00 | 0.00 | 42 | 1018.1 |
| 20260506165704 | 17 | 135 | 0.0 | 3.2 | 0.00 | 0.00 | 0.00 | 43 | 1018.1 |
| 20260506165204 | 17 | 142 | 4.8 | 16.1 | 0.00 | 0.00 | 0.00 | 42 | 1018.1 |
| 20260506164704 | 17 | 124 | 1.6 | 8.0 | 0.00 | 0.00 | 0.00 | 43 | 1018.1 |
| 20260506164204 | 17 | 103 | 4.8 | 12.9 | 0.00 | 0.00 | 0.00 | 42 | 1018.2 |
| 20260506163704 | 17 | 128 | 4.8 | 12.9 | 0.00 | 0.00 | 0.00 | 42 | 1018.2 |
| 20260506163204 | 16 | 142 | 4.8 | 14.5 | 0.00 | 0.00 | 0.00 | 44 | 1018.2 |
| 20260506162704 | 16 | 53 | 1.6 | 4.8 | 0.00 | 0.00 | 0.00 | 44 | 1018.2 |
| 20260506162204 | 16 | 178 | 4.8 | 12.9 | 0.00 | 0.00 | 0.00 | 43 | 1018.3 |
| 20260506161705 | 16 | 108 | 4.8 | 12.9 | 0.00 | 0.00 | 0.00 | 43 | 1018.2 |
| 20260506161204 | 16 | 119 | 1.6 | 4.8 | 0.00 | 0.00 | 0.00 | 44 | 1018.2 |
| 20260506160705 | 15 | 97 | 0.0 | 4.8 | 0.00 | 0.00 | 0.00 | 44 | 1018.2 |
| 20260506160204 | 15 | 161 | 4.8 | 12.9 | 0.00 | 0.00 | 0.00 | 44 | 1018.3 |
| 20260506155704 | 15 | 137 | 8.0 | 14.5 | 0.00 | 0.00 | 0.00 | 43 | 1018.3 |
| 20260506154704 | 15 | 144 | 1.6 | 4.8 | 0.00 | 0.00 | 0.00 | 42 | 1018.3 |
| 20260506153704 | 15 | 155 | 3.2 | 9.7 | 0.00 | 0.00 | 0.00 | 42 | 1018.4 |
| 20260506153204 | 15 | 134 | 1.6 | 8.0 | 0.00 | 0.00 | 0.00 | 43 | 1018.4 |
| 20260506152704 | 15 | 115 | 3.2 | 8.0 | 0.00 | 0.00 | 0.00 | 43 | 1018.4 |
| 20260506152205 | 15 | 14 | 1.6 | 4.8 | 0.00 | 0.00 | 0.00 | 43 | 1018.4 |
| 20260506151704 | 15 | 138 | 1.6 | 4.8 | 0.00 | 0.00 | 0.00 | 43 | 1018.4 |
| 20260506151204 | 15 | 45 | 1.6 | 4.8 | 0.00 | 0.00 | 0.00 | 43 | 1018.4 |
| 20260506150205 | 14 | 68 | 0.0 | 3.2 | 0.00 | 0.00 | 0.00 | 44 | 1018.3 |
| 20260506145704 | 14 | 107 | 3.2 | 4.8 | 0.00 | 0.00 | 0.00 | 43 | 1018.3 |
| 20260506145204 | 14 | 103 | 4.8 | 9.7 | 0.00 | 0.00 | 0.00 | 43 | 1018.3 |
| 20260506144705 | 14 | 104 | 3.2 | 4.8 | 0.00 | 0.00 | 0.00 | 43 | 1018.3 |
| 20260506144203 | 14 | 94 | 3.2 | 4.8 | 0.00 | 0.00 | 0.00 | 42 | 1018.2 |
| 20260506143705 | 14 | 104 | 1.6 | 4.8 | 0.00 | 0.00 | 0.00 | 42 | 1018.2 |
| 20260506143204 | 14 | 345 | 0.0 | 0.0 | 0.00 | 0.00 | 0.00 | 41 | 1018.2 |
| 20260506142704 | 13 | 297 | 0.0 | 0.0 | 0.00 | 0.00 | 0.00 | 41 | 1018.1 |
| 20260506142204 | 13 | 61 | 0.0 | 0.0 | 0.00 | 0.00 | 0.00 | 41 | 1018.2 |
| 20260506141705 | 13 | 74 | 0.0 | 0.0 | 0.00 | 0.00 | 0.00 | 42 | 1018.1 |
| 20260506141204 | 12 | 74 | 0.0 | 0.0 | 0.00 | 0.00 | 0.00 | 44 | 1018.2 |
| 20260506140704 | 12 | 74 | 0.0 | 0.0 | 0.00 | 0.00 | 0.00 | 44 | 1018.1 |
| 20260506140204 | 12 | 74 | 0.0 | 0.0 | 0.00 | 0.00 | 0.00 | 45 | 1018.1 |
| 20260506135704 | 11 | 74 | 0.0 | 0.0 | 0.00 | 0.00 | 0.00 | 45 | 1018.1 |
| 20260506135204 | 11 | 74 | 0.0 | 0.0 | 0.00 | 0.00 | 0.00 | 45 | 1018.0 |
| 20260506134704 | 11 | 74 | 0.0 | 0.0 | 0.00 | 0.00 | 0.00 | 46 | 1018.0 |
| 20260506133704 | 10 | 74 | 0.0 | 0.0 | 0.00 | 0.00 | 0.00 | 45 | 1018.0 |
| 20260506133204 | 10 | 74 | 0.0 | 0.0 | 0.00 | 0.00 | 0.00 | 45 | 1017.8 |
| 20260506132205 | 10 | 74 | 0.0 | 0.0 | 0.00 | 0.00 | 0.00 | 45 | 1017.6 |
| 20260506131704 | 10 | 74 | 0.0 | 0.0 | 0.00 | 0.00 | 0.00 | 45 | 1017.6 |
| 20260506131204 | 10 | 74 | 0.0 | 0.0 | 0.00 | 0.00 | 0.00 | 44 | 1017.6 |
| 20260506130705 | 10 | 74 | 0.0 | 0.0 | 0.00 | 0.00 | 0.00 | 44 | 1017.5 |
| 20260506130204 | 10 | 74 | 0.0 | 0.0 | 0.00 | 0.00 | 0.00 | 44 | 1017.4 |
| 20260506125704 | 10 | 74 | 0.0 | 0.0 | 0.00 | 0.00 | 0.00 | 44 | 1017.4 |
| 20260506125204 | 10 | 74 | 0.0 | 0.0 | 0.00 | 0.00 | 0.00 | 44 | 1017.5 |
| 20260506124704 | 10 | 74 | 0.0 | 0.0 | 0.00 | 0.00 | 0.00 | 44 | 1017.4 |
| 20260506124204 | 10 | 74 | 0.0 | 0.0 | 0.00 | 0.00 | 0.00 | 44 | 1017.4 |
| 20260506123204 | 10 | 74 | 0.0 | 0.0 | 0.00 | 0.00 | 0.00 | 44 | 1017.3 |
| 20260506122704 | 10 | 74 | 0.0 | 0.0 | 0.00 | 0.00 | 0.00 | 44 | 1017.3 |
| 20260506122204 | 10 | 74 | 0.0 | 0.0 | 0.00 | 0.00 | 0.00 | 44 | 1017.2 |
| 20260506120704 | 10 | 74 | 0.0 | 0.0 | 0.00 | 0.00 | 0.00 | 45 | 1017.2 |
| 20260506120205 | 10 | 74 | 0.0 | 0.0 | 0.00 | 0.00 | 0.00 | 45 | 1017.2 |
| 20260506115704 | 11 | 74 | 0.0 | 0.0 | 0.00 | 0.00 | 0.00 | 45 | 1017.2 |
| 20260506114704 | 11 | 74 | 0.0 | 0.0 | 0.00 | 0.00 | 0.00 | 45 | 1017.2 |
| 20260506113704 | 11 | 74 | 0.0 | 0.0 | 0.00 | 0.03 | 0.00 | 46 | 1017.1 |
| 20260506113204 | 11 | 82 | 0.0 | 0.0 | 0.00 | 0.03 | 0.00 | 46 | 1017.1 |
| 20260506112204 | 11 | 82 | 0.0 | 0.0 | 0.00 | 0.03 | 0.00 | 47 | 1017.1 |
| 20260506111204 | 11 | 82 | 0.0 | 0.0 | 0.00 | 0.03 | 0.00 | 46 | 1017.1 |
| 20260506110704 | 11 | 82 | 0.0 | 0.0 | 0.00 | 0.03 | 0.00 | 46 | 1017.1 |
| 20260506110205 | 11 | 82 | 0.0 | 0.0 | 0.00 | 0.03 | 0.00 | 47 | 1017.1 |
| 20260506105704 | 11 | 82 | 0.0 | 0.0 | 0.00 | 0.03 | 0.00 | 46 | 1017.1 |
| 20260506105204 | 11 | 82 | 0.0 | 0.0 | 0.00 | 0.03 | 0.00 | 46 | 1017.1 |
| 20260506104705 | 11 | 82 | 0.0 | 0.0 | 0.00 | 0.05 | 0.00 | 46 | 1017.2 |
| 20260506104206 | 11 | 82 | 0.0 | 0.0 | 0.00 | 0.05 | 0.00 | 46 | 1017.2 |
| 20260506103704 | 11 | 82 | 0.0 | 0.0 | 0.00 | 0.08 | 0.00 | 46 | 1017.2 |
| 20260506103205 | 11 | 82 | 0.0 | 0.0 | 0.00 | 0.08 | 0.00 | 46 | 1017.2 |
| 20260506102704 | 11 | 82 | 0.0 | 0.0 | 0.00 | 0.08 | 0.00 | 46 | 1017.1 |
| 20260506102205 | 11 | 82 | 0.0 | 0.0 | 0.00 | 0.08 | 0.00 | 46 | 1017.2 |
| 20260506101704 | 11 | 82 | 0.0 | 0.0 | 0.00 | 0.08 | 0.00 | 46 | 1017.2 |
| 20260506101204 | 11 | 82 | 0.0 | 0.0 | 0.00 | 0.08 | 0.00 | 47 | 1017.2 |
| 20260506100704 | 11 | 82 | 0.0 | 0.0 | 0.00 | 0.08 | 0.00 | 46 | 1017.2 |
| 20260506100204 | 11 | 82 | 0.0 | 0.0 | 0.00 | 0.08 | 0.00 | 47 | 1017.2 |
| 20260506095704 | 11 | 82 | 0.0 | 0.0 | 0.00 | 0.08 | 0.00 | 47 | 1017.3 |
| 20260506095204 | 11 | 82 | 0.0 | 0.0 | 0.00 | 0.08 | 0.00 | 47 | 1017.4 |
| 20260506094704 | 11 | 82 | 0.0 | 0.0 | 0.00 | 0.08 | 0.00 | 47 | 1017.3 |
| 20260506093708 | 11 | 82 | 0.0 | 0.0 | 0.00 | 0.08 | 0.00 | 46 | 1017.3 |
| 20260506093204 | 11 | 82 | 0.0 | 0.0 | 0.00 | 0.08 | 0.00 | 46 | 1017.3 |
| 20260506092704 | 11 | 82 | 0.0 | 0.0 | 0.00 | 0.08 | 0.00 | 45 | 1017.3 |
| 20260506092204 | 11 | 82 | 0.0 | 0.0 | 0.00 | 0.08 | 0.00 | 45 | 1017.3 |
| 20260506091204 | 11 | 82 | 0.0 | 0.0 | 0.00 | 0.08 | 0.00 | 45 | 1017.3 |
| 20260506090204 | 12 | 86 | 0.0 | 1.6 | 0.00 | 0.10 | 0.00 | 44 | 1017.3 |